User: anonymous   Login
Location: Unspecified
(0.0000°N, 0.0000°E)
Time: 21:02:43
(UTC+00:00)
Language:

PSAT 2 - Orbit

View from above orbital plane
View from above orbital plane
View from above satellite
View from above satellite

Ground track
Ground track

The orbit data is extracted from the following two-line orbital elements,

1 44354U 19036R   22264.60769923  .00099847 -40975-5  73572-3 0  9992
2 44354  28.5223 226.9788 0193775 342.2307  17.1592 15.50427783179564
Epoch (UTC): 21 September 2022 14:35:05
Eccentricity: 0.0193775
inclination: 28.5223°
perigee height: 284 km
apogee height: 547 km
right ascension of ascending node: 226.9788°
argument of perigee: 342.2307°
revolutions per day: 15.50427783
mean anomaly at epoch: 17.1592°
orbit number at epoch: 17956

The dashed part of the orbit path shows where the satellite is in the earth's shadow,  

DLR